ZIYUAN 3-02 (ZY 3-02)

Last updated on Mon Sep 21 2026 00:02:46 GMT+0000 (Coordinated Universal Time)

1 41556U 16033A 26263.62875686 .00003138 00000+0 14311-3 0 9998 2 41556 97.3760 337.5253 0012089 331.3094 28.7475 15.21305773572490
UTC large
Height (km)
Speed (km/s)
/
Latitude / Longitude
Inclination (degrees)
Orbital Period (minutes)
Azimuth
Elevation
Range (km)
Doppler Factor

Next 0 passes for location: London (51.5072 / 0.1276)

No passes found over London.
ZIYUAN 3-02 (ZY 3-02)